Weather History for Augusta Bush, GA

Change the Weather History Date:

Wednesday, July 17, 2013

  Actual Average Record
Temperature  
Mean Temperature 83 °F 82 °F  
Max Temperature 95 °F 94 °F 104 °F (1887)
Min Temperature 70 °F 70 °F 60 °F (2014)
Degree Days  
Heating Degree Days 0 0  
Month to date heating degree days 0 0  
Since 1 June heating degree days 0 0  
Since 1 July heating degree days 0 0  
Cooling Degree Days 18 17  
Month to date cooling degree days 241 281  
Year to date cooling degree days 842 972  
Since 1 June cooling degree days 633 689  
Growing Degree Days 32 (Base 50)    
Moisture  
Dew Point 71 °F    
Average Humidity 73    
Maximum Humidity 100    
Minimum Humidity 46    
Precipitation  
Precipitation 0.30 in 0.13 in 3.37 in (1897)
Month to date precipitation 7.20 2.31  
Year to date precipitation 37.63 24.53  
Sea Level Pressure  
Sea Level Pressure 30.19 in    
Wind  
Wind Speed 3 mph (SSW)    
Max Wind Speed 26 mph    
Max Gust Speed 36 mph    
Visibility 8 miles    
Events Rain , Thunderstorm    
T = Trace of Precipitation, MM = Missing Value Source: NWS Daily Summary

Daily Weather History Graph

Daily Weather History Graph

Search for Another Location

Airport:

Trip Planner

Search our weather history database for the weather conditions in past years. The results will help you decide how hot, cold, wet, or windy it might be!

Date:

Astronomy

Jul. 17, 2013 Rise Set
Actual Time 6:30 AM EDT 8:37 PM EDT
Civil Twilight 6:02 AM EDT 9:05 PM EDT
Nautical Twilight 5:28 AM EDT 9:39 PM EDT
Astronomical Twilight 4:51 AM EDT 10:16 PM EDT
Moon 3:28 PM EDT (7/17) 1:31 AM EDT (7/17)
Length of Visible Light 15h 02m
Length of Day
14h 06m
Waxing Gibbous, 67% of the Moon is Illuminated
Jul 17
Waxing Gibbous
Jul 22
Full
Jul 29
Last Quarter
Aug 6
New
Aug 14
First Quarter

Hourly Weather History & Observations

Time (EDT) Temp. Heat Index Dew Point Humidity Pressure Visibility Wind Dir Wind Speed Gust Speed Precip Events Conditions
12:53 AM 73.0 °F - 71.1 °F 93% 30.23 in 10.0 mi Calm Calm - 0.01 in   Clear
1:53 AM 71.1 °F - 71.1 °F 100% 30.23 in 7.0 mi Calm Calm - N/A   Clear
2:53 AM 71.1 °F - 70.0 °F 96% 30.22 in 3.0 mi Calm Calm - N/A   Clear
2:55 AM 71.6 °F - 69.8 °F 94% 30.22 in 1.5 mi Calm Calm - N/A   Clear
3:05 AM 71.6 °F - 69.8 °F 94% 30.22 in 4.0 mi Calm Calm - N/A   Clear
3:53 AM 72.0 °F - 71.1 °F 97% 30.22 in 9.0 mi Calm Calm - N/A   Clear
4:53 AM 70.0 °F - 70.0 °F 100% 30.22 in 6.0 mi Calm Calm - N/A   Clear
5:05 AM 69.8 °F - 69.8 °F 100% 30.22 in 4.0 mi Calm Calm - N/A   Scattered Clouds
5:09 AM 71.6 °F - 69.8 °F 94% 30.22 in 1.8 mi Calm Calm - N/A   Scattered Clouds
5:18 AM 71.6 °F - 69.8 °F 94% 30.22 in 3.0 mi Calm Calm - N/A   Scattered Clouds
5:28 AM 71.6 °F - 69.8 °F 94% 30.22 in 8.0 mi Calm Calm - N/A   Mostly Cloudy
5:38 AM 71.6 °F - 69.8 °F 94% 30.23 in 10.0 mi Calm Calm - N/A   Partly Cloudy
5:53 AM 71.1 °F - 70.0 °F 96% 30.22 in 10.0 mi Calm Calm - N/A   Clear
6:53 AM 70.0 °F - 69.1 °F 97% 30.22 in 8.0 mi Calm Calm - 0.01 in   Clear
7:53 AM 75.0 °F - 72.0 °F 90% 30.23 in 10.0 mi Calm Calm - N/A   Clear
8:53 AM 80.1 °F 84.5 °F 73.9 °F 81% 30.25 in 7.0 mi North 3.5 mph - N/A   Clear
9:53 AM 84.0 °F 90.2 °F 73.0 °F 69% 30.24 in 10.0 mi NNW 4.6 mph - N/A   Clear
10:53 AM 88.0 °F 95.6 °F 73.0 °F 61% 30.23 in 10.0 mi WNW 4.6 mph - N/A   Clear
11:53 AM 91.0 °F 98.2 °F 72.0 °F 53% 30.22 in 10.0 mi North 4.6 mph - N/A   Clear
12:53 PM 91.0 °F 97.6 °F 71.1 °F 52% 30.21 in 10.0 mi Calm Calm - N/A   Partly Cloudy
1:53 PM 93.0 °F 99.0 °F 70.0 °F 47% 30.19 in 10.0 mi Calm Calm - N/A   Clear
2:53 PM 91.9 °F 98.4 °F 71.1 °F 50% 30.15 in 10.0 mi Variable 3.5 mph - N/A   Scattered Clouds
3:43 PM 93.2 °F 100.5 °F 71.6 °F 49% 30.13 in 10.0 mi West 4.6 mph - N/A Thunderstorm Scattered Clouds
3:53 PM 91.0 °F 96.6 °F 70.0 °F 50% 30.12 in 10.0 mi SSW 5.8 mph - N/A Thunderstorm Scattered Clouds
4:04 PM 91.4 °F 96.8 °F 69.8 °F 49% 30.12 in 10.0 mi Calm Calm - N/A   Scattered Clouds
4:24 PM 89.6 °F 99.8 °F 75.2 °F 62% 30.11 in 10.0 mi South 3.5 mph - N/A Thunderstorm Scattered Clouds
4:53 PM 81.0 °F 84.4 °F 70.0 °F 69% 30.12 in 10.0 mi East 17.3 mph 35.7 mph 0.00 in Rain , Thunderstorm Light Rain
5:13 PM 75.2 °F - 71.6 °F 89% 30.15 in 1.5 mi ENE 17.3 mph 35.7 mph 0.04 in Rain , Thunderstorm Heavy Thunderstorms and Rain
5:19 PM 75.2 °F - 71.6 °F 89% 30.13 in 0.8 mi Calm Calm - 0.23 in Rain , Thunderstorm Heavy Thunderstorms and Rain
5:23 PM 77.0 °F - 71.6 °F 83% 30.13 in 1.0 mi WSW 6.9 mph - 0.28 in Rain , Thunderstorm Thunderstorms and Rain
5:27 PM 77.0 °F - 69.8 °F 78% 30.13 in 3.0 mi Calm Calm - 0.28 in Rain , Thunderstorm Light Thunderstorms and Rain
5:41 PM 75.2 °F - 69.8 °F 83% 30.14 in 10.0 mi Calm Calm - 0.28 in Thunderstorm Mostly Cloudy
5:53 PM 75.0 °F - 72.0 °F 90% 30.14 in 10.0 mi ESE 6.9 mph - 0.28 in Thunderstorm Partly Cloudy
6:03 PM 73.4 °F - 71.6 °F 94% 30.14 in 9.0 mi SSE 4.6 mph - 0.00 in Rain Light Rain
6:53 PM 72.0 °F - 70.0 °F 93% 30.10 in 10.0 mi East 3.5 mph - 0.00 in Rain Light Rain
7:53 PM 73.0 °F - 71.1 °F 93% 30.16 in 10.0 mi Calm Calm - 0.00 in   Scattered Clouds
8:48 PM 73.4 °F - 71.6 °F 94% 30.17 in 8.0 mi SSE 8.1 mph - 0.01 in Thunderstorm Mostly Cloudy
8:53 PM 73.0 °F - 70.0 °F 90% 30.16 in 9.0 mi South 6.9 mph - 0.01 in Thunderstorm Overcast
9:08 PM 73.4 °F - 69.8 °F 88% 30.17 in 10.0 mi South 4.6 mph - N/A Thunderstorm Thunderstorm
9:37 PM 73.4 °F - 71.6 °F 94% 30.18 in 10.0 mi West 5.8 mph - 0.00 in   Mostly Cloudy
9:53 PM 73.0 °F - 71.1 °F 93% 30.18 in 10.0 mi West 5.8 mph - 0.00 in   Mostly Cloudy
10:53 PM 73.9 °F - 72.0 °F 93% 30.18 in 10.0 mi Calm Calm - N/A   Partly Cloudy
11:51 PM 71.6 °F - 71.6 °F 100% 30.21 in 9.0 mi Calm Calm - 0.01 in Rain , Thunderstorm Light Rain
11:53 PM 72.0 °F - 71.1 °F 97% 30.20 in 10.0 mi Calm Calm - 0.01 in Thunderstorm Overcast